Regional Weather Roundup
Issued by NWS

Home | Current Version | Previous Version | Graphics & Text | Print | Product List | Glossary On
Versions: 1 2 3 4 5 6 7 8 9 10 11 12 13 14 15 16 17 18 19 20 21 22 23 24 25 26 27 28 29 30 31 32 33 34 35 36 37 38 39 40 41 42 43 44 45 46 47 48 49 50
000
ASUS43 KOAX 270410
RWRNE

WEATHER ROUNDUP FOR NEBRASKA
NATIONAL WEATHER SERVICE OMAHA NE
1000 PM CST SUN FEB 26 2017

NOTES: SATELLITE DATA IS BEING USED TO AUGMENT CLOUD COVER ABOVE
       12000 FEET.
       "FAIR" INDICATES FEW OR NO CLOUDS BELOW 12,000 FEET WITH NO
       SIGNIFICANT WEATHER AND/OR OBSTRUCTIONS TO VISIBILITY.

  * THESE STATIONS DO NOT REPORT WEATHER SUCH AS RAIN...SNOW OR FOG.

NEZ001>004-019>022-054>056-270500-
NEBRASKA PANHANDLE

CITY           SKY/WX    TMP DP  RH WIND       PRES   REMARKS
SCOTTSBLUFF    FAIR      19   8  62 SE3       29.82S
ALLIANCE       FAIR       5  -1  76 W5        29.81F WCI  -4
CHADRON        FAIR       8   2  76 SW5       29.82S WCI   0
KIMBALL        FAIR      16  10  79 SE6       29.80S WCI   7
SIDNEY         FAIR      16   9  74 CALM      29.84R
$$

NEZ057>060-069>072-079>082-270500-
SOUTHWEST NEBRASKA

CITY           SKY/WX    TMP DP  RH WIND       PRES   REMARKS
NORTH PLATTE   FAIR      20  13  74 S3        29.91R
IMPERIAL       FAIR      20  13  74 SE6       29.89R WCI  12
LEXINGTON      FAIR      24  17  74 CALM      29.94R
MCCOOK         FAIR      22  10  60 E5        29.92R WCI  16
OGALLALA       FAIR      16  11  83 CALM      29.88R
$$

NEZ005>010-023>029-035>040-094-270500-
NORTH CENTRAL NEBRASKA

CITY           SKY/WX    TMP DP  RH WIND       PRES   REMARKS
VALENTINE      FAIR      12   5  73 SW5       29.88R WCI   4
AINSWORTH      FAIR      17  11  79 SW9       29.89R WCI   5
BROKEN BOW     FAIR      17  12  80 CALM      29.92R
O`NEILL        FAIR      20  16  83 S7        29.92R WCI  11
ORD            FAIR      23  15  71 CALM      29.92R
THEDFORD       FAIR      16  11  79 W3        29.90R
$$

NEZ041-046>049-061>064-073>077-083>087-270500-
SOUTH CENTRAL NEBRASKA

CITY           SKY/WX    TMP DP  RH WIND       PRES   REMARKS
GRAND ISLAND   FAIR      29  20  69 S5        29.97R WCI  24
AURORA         FAIR      32  18  56 SW3       29.97R
HASTINGS       FAIR      26  16  65 CALM      29.98R
HEBRON         FAIR      26  17  69 CALM      30.01R
HOLDREGE       FAIR      24  12  60 SE3       29.94S
KEARNEY *      FAIR      28  16  59 CALM      29.96S
YORK           FAIR      28  25  86 S6        29.98S WCI  22
$$

NEZ011>018-030>034-042>045-270500-
NORTHEAST NEBRASKA

CITY           SKY/WX    TMP DP  RH WIND       PRES   REMARKS
NORFOLK        FAIR      26  19  74 S9        29.95R WCI  17
ALBION         FAIR      29  19  67 CALM      29.95S
BLAIR          FAIR      31  24  77 S3        29.98S
FREMONT        FAIR      29  24  82 CALM      29.99S
TEKAMAH        FAIR      25  22  88 S3        29.99S
WAYNE          FAIR      22  18  84 S7        29.96R WCI  13
$$

NEZ050>053-065>068-078-088>093-270500-
SOUTHEAST NEBRASKA

CITY           SKY/WX    TMP DP  RH WIND       PRES   REMARKS
LINCOLN        FAIR      30  23  75 CALM      30.01R
OMAHA EPPLEY   FAIR      29  21  72 SE6       30.01R WCI  23
BEATRICE       FAIR      28  20  72 CALM      30.00S
FALLS CITY     FAIR      32  22  66 NW3       30.02R
NEBRASKA CITY  FAIR      36  16  43 CALM      30.01S
PLATTSMOUTH    FAIR      33  19  56 SE3       30.01S
$$

NEZ044-045-051>053-067-270500-
OMAHA AREA

CITY           SKY/WX    TMP DP  RH WIND       PRES   REMARKS
OMAHA EPPLEY   FAIR      29  21  72 SE6       30.01R WCI  23
BLAIR          FAIR      31  24  77 S3        29.98S
FREMONT        FAIR      29  24  82 CALM      29.99S
MILLARD        FAIR      30  26  85 SE3       30.01R
OFFUTT AFB     FAIR      24  20  86 CALM      30.01R
PLATTSMOUTH    FAIR      33  19  56 SE3       30.01S
WAHOO          FAIR      28  23  82 S3        29.99S
$$




USA.gov is the U.S. government's official web portal to all federal, state and local government web resources and services.